Content
SEND FEEDBACK

Daily
Averages
Monthly
Summary
Greece

KALAMATA, GREECE


Home > Europe > Greece
Elevation: 26 feet     Latitude: 37 04N     Longitude: 022 01E

WEATHER
 
SELECT A DAY
Number of Records: 245,894;   Date Range: 7/1/96 - 7/23/14
 
SHARE

PRINT THIS DATA

[ ← Previous Day ]
WEATHER ALMANAC - JANUARY 3, 2013
[ Next Day → ]
[ °C ]   °F
Weather ElementAverageHighLow
Temperature51.4 °F60.8 °F (12:50 pm)41 °F (4:50 am)
Dewpoint43.5 °F46.4 °F (9:50 am)39.2 °F (5:20 am)
Humidity76.5 %100 % (4:50 am)48 % (2:20 pm)
Barometer30.36 in30.39 in (9:20 am)30.33 in (2:50 pm)
Wind Speed1.2 mph5.8 mph (7:50 pm)
Weather ElementAverage
Visibility5.4 mi
Wind DirectionENE (68.2 °)

Weather ElementTotal
Precipitation---
Heating Degree Days14.1 (Base 65)
Growing Degree Days0.9 (Base 50)
Averaged from 33 records on January 3, 2013
WEATHER CONDITIONS BREAKOUT
WIND DIRECTION BREAKOUT
WEATHER BY HOUR - JANUARY 3, 2013
[ °C ]   °F
Local TimeTemperatureDewpointHumidityBarometerVisibilityWind DirectionWind SpeedGust SpeedPrecipitationEventsConditions
4:50 AM41.0 °F41.0 °F100 %30.36 inWNW (300°)4.6 mphClear
5:20 AM41.0 °F39.2 °F93 %30.36 inNW (310°)4.6 mphClear
5:50 AM42.8 °F41.0 °F93 %30.36 inNW (310°)4.6 mphClear
6:20 AM42.8 °F41.0 °F93 %30.36 inNW (320°)4.6 mphClear
6:50 AM42.8 °F41.0 °F93 %30.36 inNNE (20°)4.6 mphClear
7:20 AM42.8 °F41.0 °F93 %30.36 in5.0 miCalmMostly Cloudy
7:50 AM42.8 °F41.0 °F93 %30.36 in5.0 miCalmMostly Cloudy
8:20 AM42.8 °F41.0 °F93 %30.36 in3.7 miNNW (330°)4.6 mphPartly Cloudy
8:50 AM44.6 °F41.0 °F87 %30.36 in4.3 miNW (320°)4.6 mphPartly Cloudy
9:20 AM46.4 °F42.8 °F87 %30.39 in4.3 miCalmPartly Cloudy
9:50 AM50.0 °F46.4 °F87 %30.39 in5.0 miCalmPartly Cloudy
10:20 AM51.8 °F46.4 °F82 %30.39 in5.0 miCalmPartly Cloudy
10:50 AM53.6 °F46.4 °F77 %30.39 in5.0 miCalmPartly Cloudy
11:20 AM55.4 °F44.6 °F67 %30.39 in5.0 miCalmPartly Cloudy
11:50 AM57.2 °F44.6 °F63 %30.39 in6.2 miCalmPartly Cloudy
12:20 PM59.0 °F44.6 °F59 %30.39 in5.0 miCalmPartly Cloudy
12:50 PM60.8 °F44.6 °F55 %30.36 in5.0 miCalmPartly Cloudy
1:20 PM60.8 °F42.8 °F52 %30.36 in5.0 miCalmPartly Cloudy
1:50 PM60.8 °F42.8 °F52 %30.36 in5.0 miCalmPartly Cloudy
2:20 PM60.8 °F41.0 °F48 %30.36 in5.0 miCalmPartly Cloudy
2:50 PM60.8 °F41.0 °F48 %30.33 in5.0 miCalmPartly Cloudy
3:20 PM60.8 °F44.6 °F55 %30.33 in5.0 miCalmPartly Cloudy
3:50 PM59.0 °F44.6 °F59 %30.33 in6.2 miCalmPartly Cloudy
4:20 PM59.0 °F46.4 °F63 %30.33 in6.2 miCalmPartly Cloudy
4:50 PM57.2 °F44.6 °F63 %30.36 in6.2 miCalmPartly Cloudy
5:20 PM53.6 °F46.4 °F77 %30.36 in6.2 miCalmPartly Cloudy
5:50 PM51.8 °F44.6 °F76 %30.36 in6.2 miCalmPartly Cloudy
6:20 PM51.8 °F46.4 °F82 %30.36 in6.2 miCalmPartly Cloudy
6:50 PM50.0 °F46.4 °F87 %30.36 in6.2 miCalmPartly Cloudy
7:20 PM48.2 °F44.6 °F87 %30.36 in6.2 miCalmPartly Cloudy
7:50 PM48.2 °F44.6 °F87 %30.36 in6.2 miNNW (340°)5.8 mphPartly Cloudy
8:20 PM48.2 °F44.6 °F87 %30.36 in6.2 miCalmPartly Cloudy
10:50 PM46.4 °F42.8 °F87 %30.36 in6.2 miCalmPartly Cloudy
Hourly data recorded from LGKL, located miles away from Kalamata, Greece







STORIES FROM OUR PARTNERS